Regional Weather Roundup
Issued by NWS Goodland, KS

Home | Current Version | Previous Version | Text Only | Print | Product List | Glossary On
Versions: 1 2 3 4 5 6 7 8 9 10 11 12 13 14 15 16 17 18 19 20 21 22 23 24 25 26 27 28 29 30 31 32 33 34 35 36 37 38 39 40 41 42 43 44 45 46 47 48 49 50
000
ASUS43 KGLD 270108
RWRGLD

GOODLAND FORECAST AREA HOURLY WEATHER ROUNDUP
NATIONAL WEATHER SERVICE GOODLAND KS
600 PM MST MON JAN 26 2015

...OFFICIAL OBSERVATIONS...

CITY           SKY/WX    TMP DP  RH WIND       PRES   REMARKS
GOODLAND KS    CLEAR     44  30  57 W9        30.15R
HILL CITY KS   CLEAR     53  28  38 NW6       30.07R
IMPERIAL NEB   CLEAR     51  29  42 W7        30.10S
MCCOOK NEB     CLEAR     53  30  41 W9        30.07S
AKRON CO       CLEAR     47  29  49 SW9       30.17R
BURLINGTON CO  CLEAR     48  33  56 W7        30.18R
LIMON CO       CLEAR     36  24  62 CALM      30.23S
$$

...UNOFFICIAL OBSERVATIONS...

CITY           SKY/WX    TMP DP  RH WIND       PRES   REMARKS
COLBY KS       CLEAR     45  34  65 W9        30.13S
GOVE KS          N/A     48  32  54 MISG        N/A
NORTON KS      CLEAR     48  25  40 W6        30.06S
SHARON SPRINGS   N/A     51  31  45 CALM        N/A
KIT CARSON CO    N/A     45  26  46 MISG        N/A
YUMA CO          N/A     45  30  55 SW9         N/A
$$


USA.gov is the U.S. government's official web portal to all federal, state and local government web resources and services.